User: anonymous   Login
Location: Beccas
(43.4309°N, 0.1528°E)
Time: 04:49:28
(UTC+00:00)
Language:

Meteor 1-22 Rocket - Orbit

View from above orbital plane
View from above orbital plane
View from above satellite
View from above satellite

Ground track
Ground track

The orbit data is extracted from the following two-line orbital elements,

1 08294U 75087B   22017.55409671 -.00000027  00000-0 -21393-4 0  9992
2 08294  81.2135 189.5838 0103932 356.0083   4.0245 14.08670472380465
Epoch (UTC): 17 January 2022 13:17:53
Eccentricity: 0.0103932
inclination: 81.2135°
perigee height: 788 km
apogee height: 939 km
right ascension of ascending node: 189.5838°
argument of perigee: 356.0083°
revolutions per day: 14.08670472
mean anomaly at epoch: 4.0245°
orbit number at epoch: 38046

The dashed part of the orbit path shows where the satellite is in the earth's shadow,  

DLR